TimeCST,TemperatureF,Dew PointF,Humidity,Sea Level PressureIn,VisibilityMPH,Wind Direction,Wind SpeedMPH,Gust SpeedMPH,PrecipitationIn,Events,Conditions,WindDirDegrees,DateUTC
12:53 AM,37.0,36.0,96,30.18,4.0,NNW,8.1,-,N/A,,Overcast,340,2013-12-09 06:53:00
1:06 AM,37.4,35.6,93,30.18,2.5,NNW,6.9,-,N/A,,Overcast,340,2013-12-09 07:06:00
1:37 AM,37.4,35.6,93,30.18,4.0,North,8.1,-,N/A,,Overcast,360,2013-12-09 07:37:00
1:53 AM,37.0,35.1,93,30.18,3.0,North,10.4,-,N/A,,Overcast,350,2013-12-09 07:53:00
2:53 AM,36.0,35.1,97,30.19,3.0,North,6.9,-,N/A,,Overcast,10,2013-12-09 08:53:00
3:30 AM,35.6,33.8,93,30.19,6.0,NNE,9.2,-,N/A,,Overcast,20,2013-12-09 09:30:00
3:53 AM,36.0,34.0,93,30.19,9.0,NNE,8.1,-,N/A,,Overcast,20,2013-12-09 09:53:00
4:16 AM,35.6,33.8,93,30.19,3.0,NE,10.4,-,N/A,,Overcast,40,2013-12-09 10:16:00
4:45 AM,35.6,33.8,93,30.19,2.5,NNE,8.1,-,N/A,,Overcast,30,2013-12-09 10:45:00
4:53 AM,36.0,34.0,93,30.19,2.5,North,6.9,-,N/A,,Overcast,10,2013-12-09 10:53:00
5:26 AM,35.6,33.8,93,30.20,3.0,NNE,11.5,-,N/A,,Overcast,20,2013-12-09 11:26:00
5:53 AM,35.1,34.0,96,30.21,3.0,NE,9.2,-,N/A,,Overcast,50,2013-12-09 11:53:00
6:14 AM,35.6,33.8,93,30.21,8.0,NNE,8.1,-,N/A,,Overcast,30,2013-12-09 12:14:00
6:53 AM,35.1,34.0,96,30.21,6.0,NE,10.4,-,N/A,,Overcast,50,2013-12-09 12:53:00
7:24 AM,35.6,33.8,93,30.21,4.0,NE,6.9,-,N/A,,Overcast,50,2013-12-09 13:24:00
7:53 AM,35.1,34.0,96,30.23,4.0,NE,6.9,-,N/A,,Overcast,40,2013-12-09 13:53:00
8:03 AM,35.6,33.8,93,30.23,1.8,ENE,8.1,-,N/A,,Overcast,60,2013-12-09 14:03:00
8:53 AM,35.1,34.0,96,30.27,1.5,NE,8.1,-,N/A,,Overcast,40,2013-12-09 14:53:00
9:44 AM,35.6,33.8,93,30.28,1.8,NNE,8.1,-,N/A,,Overcast,20,2013-12-09 15:44:00
9:53 AM,36.0,34.0,93,30.28,1.8,NNE,10.4,-,N/A,,Overcast,20,2013-12-09 15:53:00
10:02 AM,35.6,33.8,93,30.28,2.0,North,9.2,-,N/A,,Overcast,10,2013-12-09 16:02:00
10:18 AM,35.6,33.8,93,30.28,4.0,NNE,9.2,-,N/A,,Overcast,20,2013-12-09 16:18:00
10:53 AM,36.0,34.0,93,30.27,4.0,NNE,11.5,-,N/A,,Overcast,20,2013-12-09 16:53:00
11:00 AM,35.6,33.8,93,30.27,2.0,NNE,8.1,-,N/A,,Overcast,20,2013-12-09 17:00:00
11:53 AM,37.0,34.0,89,30.26,2.0,NNE,9.2,-,N/A,,Overcast,30,2013-12-09 17:53:00
12:00 PM,35.6,33.8,93,30.25,6.0,NNE,9.2,-,N/A,,Overcast,20,2013-12-09 18:00:00
12:53 PM,37.0,34.0,89,30.22,6.0,NE,11.5,-,N/A,,Overcast,40,2013-12-09 18:53:00
1:00 PM,37.4,33.8,87,30.21,6.0,NNE,10.4,-,N/A,,Overcast,20,2013-12-09 19:00:00
1:53 PM,36.0,34.0,93,30.20,6.0,ENE,11.5,-,N/A,,Overcast,60,2013-12-09 19:53:00
2:53 PM,36.0,33.1,89,30.18,4.0,ENE,12.7,-,N/A,,Overcast,60,2013-12-09 20:53:00
3:53 PM,35.1,33.1,92,30.19,6.0,NE,10.4,-,N/A,,Overcast,50,2013-12-09 21:53:00
4:53 PM,35.1,33.1,92,30.18,5.0,NE,8.1,-,0.02,,Overcast,40,2013-12-09 22:53:00
5:11 PM,35.6,33.8,93,30.19,5.0,NE,9.2,-,0.00,Rain,Light Rain,40,2013-12-09 23:11:00
5:31 PM,35.6,33.8,93,30.17,2.0,NNE,10.4,-,0.05,Rain,Rain,30,2013-12-09 23:31:00
5:53 PM,35.1,33.1,92,30.16,2.0,NE,10.4,-,0.08,Rain,Light Rain,40,2013-12-09 23:53:00
6:00 PM,35.6,33.8,93,30.17,5.0,NNE,8.1,-,0.01,Rain,Light Rain,30,2013-12-10 00:00:00
6:53 PM,35.1,33.1,92,30.21,9.0,North,9.2,-,0.01,,Overcast,350,2013-12-10 00:53:00
7:16 PM,33.8,33.8,100,30.20,2.5,North,8.1,-,0.01,Rain,Light Rain,360,2013-12-10 01:16:00
7:31 PM,33.8,33.8,100,30.22,4.0,North,9.2,-,0.02,Rain,Light Rain,360,2013-12-10 01:31:00
7:40 PM,33.8,32.0,93,30.24,6.0,NNW,10.4,-,0.02,Rain,Light Freezing Rain,340,2013-12-10 01:40:00
7:53 PM,34.0,32.0,92,30.26,2.5,NNW,12.7,-,0.03,Rain,Light Freezing Rain,330,2013-12-10 01:53:00
8:08 PM,33.8,32.0,93,30.23,2.5,NNE,10.4,-,0.01,Rain,Light Freezing Rain,20,2013-12-10 02:08:00
8:18 PM,33.8,32.0,93,30.24,3.0,North,10.4,-,0.01,Rain,Light Freezing Rain,360,2013-12-10 02:18:00
8:36 PM,33.8,32.0,93,30.24,5.0,North,11.5,17.3,0.02,Rain,Light Rain,360,2013-12-10 02:36:00
8:43 PM,33.8,32.0,93,30.24,4.0,NNE,11.5,-,0.03,Rain,Light Freezing Rain,20,2013-12-10 02:43:00
8:51 PM,33.8,32.0,93,30.24,4.0,North,9.2,-,0.03,Rain,Light Freezing Rain,360,2013-12-10 02:51:00
8:53 PM,34.0,32.0,92,30.25,4.0,North,9.2,-,0.03,Rain,Light Freezing Rain,360,2013-12-10 02:53:00
9:00 PM,33.8,32.0,93,30.25,4.0,North,8.1,-,0.01,Rain,Light Freezing Rain,10,2013-12-10 03:00:00
9:07 PM,33.8,32.0,93,30.25,4.0,North,11.5,-,0.01,Rain,Light Rain,10,2013-12-10 03:07:00
9:12 PM,33.8,32.0,93,30.25,4.0,North,9.2,-,0.02,Rain,Light Freezing Rain,10,2013-12-10 03:12:00
9:26 PM,33.8,32.0,93,30.25,4.0,North,6.9,-,0.04,Rain,Light Freezing Rain,10,2013-12-10 03:26:00
9:39 PM,33.8,32.0,93,30.25,6.0,North,8.1,-,0.04,Rain,Light Rain,10,2013-12-10 03:39:00
9:50 PM,33.8,32.0,93,30.25,6.0,North,6.9,-,0.04,Rain,Light Freezing Rain,360,2013-12-10 03:50:00
9:53 PM,34.0,32.0,92,30.25,6.0,North,4.6,-,0.04,Rain,Light Freezing Rain,10,2013-12-10 03:53:00
10:12 PM,33.8,32.0,93,30.25,6.0,North,5.8,-,0.00,Rain,Light Rain,360,2013-12-10 04:12:00
10:16 PM,33.8,32.0,93,30.24,5.0,North,5.8,-,0.00,Rain,Light Freezing Rain,10,2013-12-10 04:16:00
10:50 PM,33.8,32.0,93,30.27,9.0,NNW,6.9,-,0.00,Rain,Light Freezing Rain,340,2013-12-10 04:50:00
10:53 PM,34.0,32.0,92,30.27,8.0,NNW,6.9,-,0.00,Rain,Light Freezing Rain,340,2013-12-10 04:53:00
11:23 PM,33.8,32.0,93,30.27,7.0,NNW,8.1,-,0.00,,Overcast,340,2013-12-10 05:23:00
11:53 PM,34.0,32.0,92,30.30,6.0,NNW,10.4,-,0.00,,Overcast,330,2013-12-10 05:53:00